Flag for U.S.A. Weather past 2 weeks in Cheyenne, Wyoming, U.S.A.

Now
69 °F

Overcast.


Feels Like: 69 °F
Forecast: 53 / 73 °F
Wind: 7 mph from Southwest

Location: Cheyenne Airport

Current Time: Aug 23, 2014 at 12:16:34 PM

Latest Report: Aug 23, 2014 at 11:53 AM


Visibility: 10 mi

Pressure: 29.75 "Hg

Humidity: 51%

Dew point: 50 °F

Location of CheyenneLocation

Historic Weather in Cheyenne — Graph

°F

Cheyenne temperature yesterday

Maximum temperature yesterday: 72 °F (at 2:53 PM)
Minimum temperature yesterday: 57 °F (at 11:53 PM)
Average temperature yesterday: 62 °F

Past Weeks' High & Low Weather Summary

 TemperatureHumidityPressure
High88 °F (Aug 17, 4:53 PM)97% (Aug 23, 5:53 AM)30.27 "Hg (Aug 23, 5:53 AM)
Low53 °F (Aug 10, 4:53 AM)10% (Aug 17, 2:00 PM)29.68 "Hg (Aug 19, 11:53 PM)
Average69 °F47%29.92 "Hg
* Reported Aug 8 10:53 AM — Aug 23 10:53 AM, Cheyenne, Weather by CustomWeather, © 2014

Note: Actual official high and low records may vary slightly from our data, if they occured in-between our weather recording intervals... More about our weather records

Advertising

Cheyenne weather history for previous 24 hours

 ConditionsComfort  
Time TempWeatherWind HumidityBarometerVisibility
10:53 AM
Aug 23
70 °FPassing clouds.No wind42%29.74 "Hg10 mi
9:53 AM67 °FSunny.8 mph47%29.76 "Hg10 mi
8:53 AM63 °FSunny.3 mph65%29.79 "Hg10 mi
7:53 AM58 °FMore clouds than sun.6 mph87%29.81 "Hg10 mi
6:53 AM57 °FMostly cloudy.5 mph93%29.81 "Hg7 mi
5:53 AM56 °FLow clouds.5 mph97%29.80 "Hg7 mi
4:53 AM57 °FOvercast.8 mph93%29.78 "Hg10 mi
3:53 AM57 °FOvercast.12 mph93%29.79 "Hg10 mi
2:53 AM57 °FLow clouds.9 mph96%29.80 "Hg10 mi
1:53 AM57 °FLow clouds.10 mph93%29.81 "Hg10 mi
12:53 AM57 °FMostly cloudy.9 mph93%29.83 "Hg10 mi
11:53 PM
Aug 22
57 °FLight rain. Mostly cloudy.12 mph93%29.83 "Hg9 mi
10:53 PM58 °FMostly cloudy.12 mph90%29.86 "Hg10 mi
9:53 PM58 °FCool.14 mph93%29.90 "Hg10 mi
8:53 PM58 °FPassing clouds.16 mph90%29.92 "Hg10 mi
7:53 PM58 °FMore clouds than sun.22 mph93%29.89 "Hg10 mi
6:53 PM60 °FLight rain. Overcast.15 mph90%29.88 "Hg10 mi
5:53 PM62 °FStrong thunderstorms. Fog.14 mph86%29.91 "Hg3 mi
4:53 PM68 °FPassing clouds.15 mph61%29.88 "Hg10 mi
3:53 PM70 °FMild.15 mph53%29.89 "Hg10 mi
2:53 PM72 °FOvercast.13 mph43%29.89 "Hg10 mi
1:53 PM71 °FMostly cloudy.12 mph42%29.91 "Hg10 mi
Weather by CustomWeather, © 2014

See weather overviewHow to use our weather pages